Regional Weather Roundup
Issued by NWS

Home | Current Version | Previous Version | Text Only | Print | Product List | Glossary Off
Versions: 1 2 3 4 5 6 7 8 9 10 11 12 13 14 15 16 17 18 19 20 21 22 23 24 25 26 27 28 29 30 31 32 33 34 35 36 37 38 39 40 41 42 43 44 45 46 47 48 49 50

000
ASUS43 KLSX 290110
RWRMO

WEATHER SUMMARY FOR MISSOURI
NATIONAL WEATHER SERVICE SPRINGFIELD MO
800 PM CDT SUN MAY 28 2017

NOTE: "FAIR" INDICATES FEW OR NO CLOUDS BELOW 12,000 FEET WITH NO
       SIGNIFICANT WEATHER AND/OR OBSTRUCTIONS TO VISIBILITY.
       CURRENT SKY AND/OR WEATHER CONDITIONS ARE NOT AVAILABLE FOR
       CHILLICOTHE AND FARMINGTON.

MOZ001>031-035>038-043-044-053-054-290200-
...NORTHERN AND WESTERN MISSOURI...

CITY           SKY/WX    TMP DP  RH WIND       PRES   REMARKS
KANSAS CTY INT PTCLDY    73  52  47 W8        29.90F
KANSAS C DTWN  CLEAR     78  48  34 W8        29.89F
LEE`S SUMMIT   CLEAR     75  50  41 W5        29.92S
ST JOSEPH      CLEAR     77  52  41 SW9       29.87F
CHILLICOTHE      N/A     76  51  41 CALM      29.87F
KIRKSVILLE     CLEAR     73  49  42 SW6       29.86F

$$
MOZ066>068-077>081-088>096-101>105-290200-
...SOUTHWEST MISSOURI...

CITY           SKY/WX    TMP DP  RH WIND       PRES   REMARKS
SPRINGFIELD    CLEAR     75  54  47 CALM      29.93F
JOPLIN         CLEAR     75  55  49 NW6       29.95S
BRANSON        PTCLDY    72  54  53 CALM      29.98S

$$
MOZ032>034-039>042-045>050-055>058-069>072-290200-
...CENTRAL MISSOURI...

CITY           SKY/WX    TMP DP  RH WIND       PRES   REMARKS
COLUMBIA       CLEAR     74  56  53 W6        29.89S
JEFFERSON CITY CLEAR     78  55  44 W9        29.87F
ROLLA          CLEAR     68  58  70 SW6       29.91S
SEDALIA        CLEAR     75  56  51 W5        29.92R
WHITEMAN AFB   CLEAR     75  53  46 NW5       29.90S
WARRENSBURG    CLEAR     73  50  43 W3        29.90F
OSAGE BEACH    CLEAR     73  59  61 SW3       29.92F

$$
MOZ051-052-059>065-290200-
...EAST CENTRAL MISSOURI...

CITY           SKY/WX    TMP DP  RH WIND       PRES   REMARKS
ST LOUIS INTL  PTCLDY    77  53  43 W8        29.87S
SPIRIT OF STL  PTCLDY    72  60  66 SW6       29.86S
ST CHARLES     CLEAR     75  55  49 SW7       29.85S

$$
MOZ072>076-082>087-097>100-106>115-290200-
...SOUTH CENTRAL AND SOUTHEAST MISSOURI...

CITY           SKY/WX    TMP DP  RH WIND       PRES   REMARKS
CAPE GIRARDEAU CLEAR     72  62  71 W6        29.89R
FARMINGTON     CLEAR     71  58  63 W3        29.92S
POPLAR BLUFF   CLEAR     74  63  68 NW7       29.89R
WEST PLAINS    CLEAR     70  57  63 CALM      29.96S

$$




USA.gov is the U.S. government's official web portal to all federal, state and local government web resources and services.